This is the latest recevied weather packets stored in our database for station/object K0QJ. If no packets are shown the sender has not sent any weather packets the latest 10 day(s).
| Time | Temp. | Humidity | Pressure | Rain* | Wind** | Luminosity | Snow |
|---|---|---|---|---|---|---|---|
| 1778072198 | 8.89° C | 80% | 1016.7 hPa | 0 mm | - | 24 W/m² | - |
| 1778071895 | 8.89° C | 80% | 1016.6 hPa | 0 mm | - | 48 W/m² | - |
| 1778071593 | 8.89° C | 81% | 1016.4 hPa | 0 mm | - | 56 W/m² | - |
| 1778071291 | 8.89° C | 81% | 1016.4 hPa | 0 mm | - | 45 W/m² | - |
| 1778070988 | 8.89° C | 81% | 1016.4 hPa | 0 mm | - | 49 W/m² | - |
| 1778070687 | 8.89° C | 81% | 1016.2 hPa | 0 mm | - | 39 W/m² | - |
| 1778070383 | 8.33° C | 82% | 1016.1 hPa | 0 mm | - | 46 W/m² | - |
| 1778070081 | 8.33° C | 84% | 1016.1 hPa | 0 mm | - | 42 W/m² | - |
| 1778069778 | 8.33° C | 85% | 1015.9 hPa | 0 mm | - | 33 W/m² | - |
| 1778069475 | 7.78° C | 85% | 1015.6 hPa | 0 mm | - | 34 W/m² | - |
| 1778069173 | 7.78° C | 85% | 1015.5 hPa | 0 mm | - | 29 W/m² | - |
| 1778068870 | 7.78° C | 85% | 1015.6 hPa | 0 mm | - | 13 W/m² | - |
| 1778068568 | 7.78° C | 85% | 1015.5 hPa | 0 mm | - | 25 W/m² | - |
| 1778068266 | 7.78° C | 85% | 1015.2 hPa | 0 mm | - | 14 W/m² | - |
| 1778067963 | 7.78° C | 85% | 1015.1 hPa | 0 mm | - | 12 W/m² | - |
| 1778067661 | 7.78° C | 85% | 1015.2 hPa | 0 mm | - | 16 W/m² | - |
| 1778067359 | 7.78° C | 85% | 1014.9 hPa | 0 mm | - | 9 W/m² | - |
| 1778067056 | 7.78° C | 84% | 1014.9 hPa | 0 mm | - | 2 W/m² | - |
| 1778066752 | 7.78° C | 83% | 1015 hPa | 0 mm | - | 1 W/m² | - |
| 1778066450 | 7.78° C | 82% | 1015 hPa | 0 mm | - | 0 W/m² | - |
| 1778066147 | 7.78° C | 82% | 1015.1 hPa | 0 mm | - | 0 W/m² | - |
| 1778065845 | 7.78° C | 82% | 1015.4 hPa | 0 mm | - | 0 W/m² | - |
| 1778065542 | 7.78° C | 83% | 1015.4 hPa | 0 mm | - | 0 W/m² | - |
| 1778065239 | 7.22° C | 87% | 1015.6 hPa | 0 mm | - | 0 W/m² | - |
| 1778064935 | 7.22° C | 89% | 1015.6 hPa | 0 mm | - | 0 W/m² | - |
* Rain latest hour (hover to see other rain measurements)
** Current wind speed in m/s (hover to see current wind gust speed)